| time (UTC) | temp F | wind direction | speed MPH | gust MPH | rain 1hr in | rain 24hr in | rain mn in | humidity % | barometer mb |
| 20260504045850 | 57 | 0 | 0.0 | 0.0 | 0.00 | 0.00 | 0.00 | 48 | 967.5 |
| 20260504044450 | 57 | 0 | 0.0 | 0.0 | 0.00 | 0.00 | 0.00 | 46 | 967.7 |
| 20260504042850 | 58 | 0 | 0.0 | 0.0 | 0.00 | 0.00 | 0.00 | 46 | 967.8 |
| 20260504041450 | 58 | 0 | 0.0 | 0.0 | 0.00 | 0.00 | 0.00 | 45 | 968.0 |
| 20260504035850 | 59 | 0 | 0.0 | 0.0 | 0.00 | 0.00 | 0.00 | 44 | 968.3 |
| 20260504034450 | 59 | 0 | 0.0 | 0.0 | 0.00 | 0.00 | 0.00 | 43 | 968.2 |
| 20260504032850 | 60 | 0 | 0.0 | 0.0 | 0.00 | 0.00 | 0.00 | 44 | 968.3 |
| 20260504031450 | 61 | 0 | 0.0 | 0.0 | 0.00 | 0.00 | 0.00 | 44 | 968.4 |
| 20260504025850 | 62 | 0 | 0.0 | 0.0 | 0.00 | 0.00 | 0.00 | 44 | 968.3 |
| 20260504024450 | 62 | 0 | 0.0 | 0.0 | 0.00 | 0.00 | 0.00 | 41 | 968.5 |
| 20260504022850 | 63 | 0 | 0.0 | 0.0 | 0.00 | 0.00 | 0.00 | 39 | 968.4 |
| 20260504021450 | 64 | 0 | 0.0 | 0.0 | 0.00 | 0.00 | 0.00 | 40 | 968.3 |
| 20260504015850 | 65 | 0 | 0.0 | 0.0 | 0.00 | 0.00 | 0.00 | 38 | 968.1 |
| 20260504014450 | 66 | 0 | 0.0 | 0.0 | 0.00 | 0.00 | 0.00 | 36 | 968.0 |
| 20260504012850 | 67 | 0 | 0.0 | 0.0 | 0.00 | 0.00 | 0.00 | 32 | 967.9 |
| 20260504011450 | 68 | 0 | 0.0 | 2.0 | 0.00 | 0.00 | 0.00 | 31 | 967.7 |
| 20260504005850 | 69 | 91 | 2.0 | 3.0 | 0.00 | 0.00 | 0.00 | 29 | 967.7 |
| 20260504004450 | 70 | 109 | 2.0 | 6.0 | 0.00 | 0.00 | 0.00 | 29 | 967.4 |
| 20260504002850 | 71 | 80 | 4.0 | 5.0 | 0.00 | 0.00 | 0.00 | 27 | 967.5 |
| 20260504001450 | 71 | 147 | 2.0 | 12.0 | 0.00 | 0.00 | 0.00 | 28 | 967.4 |
| 20260503235850 | 72 | 180 | 4.0 | 5.0 | 0.00 | 0.00 | 0.00 | 27 | 967.4 |
| 20260503234450 | 73 | 184 | 4.0 | 8.0 | 0.00 | 0.00 | 0.00 | 26 | 967.1 |
| 20260503232850 | 74 | 115 | 4.0 | 12.0 | 0.00 | 0.00 | 0.00 | 26 | 967.3 |
| 20260503231450 | 74 | 89 | 3.0 | 11.0 | 0.00 | 0.00 | 0.00 | 26 | 967.3 |
| 20260503225850 | 75 | 156 | 4.0 | 10.0 | 0.00 | 0.00 | 0.00 | 25 | 967.2 |
| 20260503224450 | 75 | 121 | 8.0 | 11.0 | 0.00 | 0.00 | 0.00 | 25 | 967.4 |
| 20260503222850 | 75 | 117 | 3.0 | 8.0 | 0.00 | 0.00 | 0.00 | 25 | 967.1 |
| 20260503221450 | 76 | 180 | 4.0 | 13.0 | 0.00 | 0.00 | 0.00 | 24 | 967.1 |
| 20260503215850 | 76 | 74 | 10.0 | 12.0 | 0.00 | 0.00 | 0.00 | 26 | 967.0 |
| 20260503214450 | 76 | 143 | 7.0 | 13.0 | 0.00 | 0.00 | 0.00 | 25 | 967.1 |
| 20260503212850 | 76 | 172 | 4.0 | 11.0 | 0.00 | 0.00 | 0.00 | 26 | 967.1 |
| 20260503211450 | 76 | 116 | 6.0 | 10.0 | 0.00 | 0.00 | 0.00 | 27 | 967.0 |
| 20260503205850 | 77 | 120 | 8.0 | 13.0 | 0.00 | 0.00 | 0.00 | 27 | 967.1 |
| 20260503204450 | 77 | 141 | 3.0 | 8.0 | 0.00 | 0.00 | 0.00 | 28 | 967.2 |
| 20260503202850 | 77 | 160 | 6.0 | 11.0 | 0.00 | 0.00 | 0.00 | 29 | 967.3 |
| 20260503201450 | 76 | 71 | 4.0 | 10.0 | 0.00 | 0.00 | 0.00 | 28 | 967.3 |
| 20260503195850 | 76 | 82 | 10.0 | 14.0 | 0.00 | 0.00 | 0.00 | 30 | 967.5 |
| 20260503194450 | 76 | 213 | 4.0 | 11.0 | 0.00 | 0.00 | 0.00 | 31 | 967.4 |
| 20260503192850 | 76 | 144 | 9.0 | 17.0 | 0.00 | 0.00 | 0.00 | 30 | 967.6 |
| 20260503191450 | 76 | 180 | 4.0 | 11.0 | 0.00 | 0.00 | 0.00 | 31 | 967.4 |
| 20260503185850 | 75 | 89 | 7.0 | 12.0 | 0.00 | 0.00 | 0.00 | 30 | 967.6 |
| 20260503184450 | 75 | 107 | 5.0 | 8.0 | 0.00 | 0.00 | 0.00 | 32 | 967.7 |
| 20260503182850 | 74 | 84 | 3.0 | 12.0 | 0.00 | 0.00 | 0.00 | 33 | 967.7 |
| 20260503181450 | 73 | 93 | 4.0 | 9.0 | 0.00 | 0.00 | 0.00 | 36 | 967.8 |
| 20260503175850 | 73 | 172 | 4.0 | 9.0 | 0.00 | 0.00 | 0.00 | 35 | 968.1 |
| 20260503174450 | 72 | 50 | 4.0 | 9.0 | 0.00 | 0.00 | 0.00 | 38 | 968.2 |
| 20260503172850 | 70 | 70 | 2.0 | 4.0 | 0.00 | 0.00 | 0.00 | 38 | 968.3 |
| 20260503171450 | 69 | 102 | 5.0 | 10.0 | 0.00 | 0.00 | 0.00 | 38 | 968.5 |
| 20260503081450 | 52 | 92 | 2.0 | 3.0 | 0.00 | 0.00 | 0.00 | 50 | 974.5 |
| 20260503072850 | 52 | 243 | 3.0 | 9.0 | 0.00 | 0.00 | 0.00 | 46 | 974.1 |
| 20260503071450 | 51 | 0 | 0.0 | 2.0 | 0.00 | 0.00 | 0.00 | 48 | 974.5 |
| 20260503054450 | 51 | 43 | 3.0 | 6.0 | 0.00 | 0.00 | 0.00 | 49 | 974.9 |
| 20260503052850 | 51 | 351 | 2.0 | 5.0 | 0.00 | 0.00 | 0.00 | 48 | 974.8 |
| 20260503051450 | 51 | 355 | 6.0 | 8.0 | 0.00 | 0.00 | 0.00 | 48 | 974.9 |